SCP
0 0 0 0 0 0 0 0 0 0 0 0 0 0 0 0 0 0 0 0 0 0 0 0 0 0 0 0 0 0 0 0 0 0 0 0 0 0 0 0 0 0 0
0 0 0 0 0 0 0 0 0 0 0 0 0 0 0 0 0 0 0 0 0 0 0 0 0 0 0 0 0 0 0 0 0 0 0 0 0 0 0 0 0 0 0
0 0 0 0 0 0 0 0 0 0 0 0 0 0 0 0 0 0 0 0 0 0 0 0 0 0 0 0 0 0 0 0 0 0 0 0 0 0 0 0 0 0 0
0 0 0 0 0 0 0 0 0 0 0 0 0 0 0 0 0 0 0 0 0 0 0 0 0 0 0 0 0 0 0 0 0 0 0 0 0 0 0 0 0 0 0
0 0 0 0 0 0 0 0 0 0 0 0 0 0 0 0 0 0 0 0 0 0 0 0 0 0 0 0 0 0 0 0 0 0 0 0 0 0 0 0 0 0 0
0 0 0 0 0 0 0 0 0 0 0 0 0 0 0 0 0 0 0 0 0 0 0 0 0 0 0 0 0 0 0 0 0 0 0 0 0 0 0 0 0 0 0
0 0 0 0 0 0 0 0 0 0 0 0 0 0 0 0 0 0 0 0 0 0 0 0 0 0 0 0 0 0 0 0 0 0 0 0 0 0 0 0 0 0 0
0 0 0 0 0 0 0 0 0 0 0 0 0 0 0 0 0 0 0 0 0 0 0 0 0 0 0 0 0 0 0 0 0 0 0 0 0 0 0 0 0 0 0
0 0 0 0 0 0 0 0 0 0 0 0 0 0 0 0 0 0 0 0 0 0 0 0 0 0 0 0 0 0 0 0 0 0 0 0 0 0 0 0 0 0 0
0 0 0 0 0 0 0 0 0 0 0 0 0 0 0 0 0 0 0 0 0 0 0 0 0 0 0 0 0 0 0 0 0 0 0 0 0 0 0 0 0 0 0
0 0 0 0 0 0 0 0 0 0 0 0 0 0 0 0 0 0 0 0 0 0 0 0 0 0 0 0 0 0 0 0 0 0 0 0 0 0 0 0 0 0 0
0 0 0 0 0 0 0 0 0 0 0 0 0 0 0 0 0 0 0 0 0 0 0 0 0 0 0 0 0 0 0 0 0 0 0 0 0 0 0 0 0 0 0
0 0 0 0 0 0 0 0 0 0 0 0 0 0 0 0 0 0 0 0 0 0 0 0 0 0 0 0 0 0 0 0 0 0 0 0 0 0 0 0 0 0 0
0 0 0 0 0 0 0 0 0 0 0 0 0 0 0 0 0 0 0 0 0 0 0 0 0 0 0 0 0 0 0 0 0 0 0 0 0 0 0 0 0 0 0
0 0 0 0 0 0 0 0 0 0 0 0 0 0 0 0 0 0 0 0 0 0 0 0 0 0 0 0 0 0 0 0 0 0 0 0 0 0 0 0 0 0 0
0 0 0 0 0 0 0 0 0 0 0 0 0 0 0 0 0 0 0 0 0 0 0 0 0 0 0 0 0 0 0 0 0 0 0 0 0 0 0 0 0 0 0
0 0 0 0 0 0 0 0 0 0 0 0 0 0 0 0 0 0 0 0 0 0 0 0 0 0 0 0 0 0 0 0 0 0 0 0 0 0 0 0 0 0 0
0 0 0 0 0 0 0 0 0 0 0 0 0 0 0 0 0 0 0 0 0 0 0 0 0 0 0 0 0 0 0 0 0 0 0 0 0 0 0 0 0 0 0
0 0 0 0 0 0 1 1 1 1 1 1 1 1 0 0 0 0 0 0 0 0 0 0 0 0 0 0 0 0 0 0 0 0 0 0 0 0 0 0 0 0 0
0 0 0 0 1 1 1 1 1 1 1 1 1 1 1 1 0 0 0 0 0 0 0 0 0 0 0 0 0 0 0 0 0 0 0 0 0 0 0 0 0 0 0
0 1 1 1 1 1 1 1 1 1 0 1 1 1 1 1 1 0 0 0 0 0 0 0 0 0 0 0 0 0 0 0 0 0 0 0 0 0 0 0 0 0 0
1 1 1 1 1 1 1 1 1 0 0 0 1 1 1 1 1 1 1 1 1 1 1 1 0 0 0 0 0 0 0 0 0 0 0 0 0 0 0 0 0 0 0
1 1 1 1 1 1 1 1 1 1 0 0 0 1 1 1 1 1 1 1 1 1 1 1 1 0 0 0 0 0 0 0 0 0 0 0 0 0 0 0 0 0 0
1 1 1 1 1 1 1 1 1 1 1 1 1 1 1 1 1 1 1 1 1 1 1 1 0 0 0 0 0 0 0 0 0 0 0 0 0 0 0 0 0 0 0
1 1 1 1 1 1 1 1 1 1 1 1 1 1 1 1 0 0 0 0 1 1 0 0 0 0 0 0 0 0 0 0 0 0 0 0 0 0 0 0 0 0 0
1 1 1 1 1 1 1 1 1 1 1 1 1 1 1 1 1 1 0 0 0 0 0 0 0 0 0 0 0 0 0 0 0 0 0 0 0 0 0 0 0 0 0
Wind_Speed
6 5 6 6 5 4 4 4 4 3 3 2 1 1 0 0 0 0 0 0 0 0 1 0 0 1 1 1 1 1 2 1 1 2 1 2 2 2 1 1 1 1 1
5 6 6 6 6 6 5 4 4 4 3 2 2 2 1 1 0 1 1 1 0 0 1 1 1 1 1 1 1 1 1 1 1 1 1 1 2 2 2 1 1 1 1
9 8 7 7 6 7 7 6 5 4 3 3 2 2 2 2 1 1 1 1 1 0 0 0 0 1 1 1 1 2 2 1 1 1 2 2 1 1 1 1 1 1 1
9 8 8 8 8 8 6 5 5 4 4 4 3 3 2 2 1 1 1 1 1 1 1 1 1 1 1 1 2 2 1 2 1 1 1 1 2 2 0 1 1 1 1
11 10 10 10 8 7 7 6 5 4 4 4 5 4 3 2 1 0 1 1 2 1 1 1 0 0 1 1 1 1 1 1 1 1 1 1 1 1 2 1 1 1 1
11 10 8 7 6 6 6 6 6 5 4 5 5 5 4 3 2 1 0 1 1 1 1 1 0 0 1 1 1 1 1 1 1 0 1 1 2 2 2 2 1 1 1
10 10 9 9 8 8 8 7 7 6 5 5 5 5 5 4 3 2 2 1 0 1 1 0 0 0 1 1 1 1 1 1 1 1 0 1 1 1 2 2 1 0 0
10 10 11 10 10 9 8 8 8 7 6 6 5 4 4 3 3 3 2 2 1 1 1 0 0 0 0 0 1 1 1 1 1 0 0 0 0 1 1 2 2 1 0
10 10 10 9 9 9 9 9 9 7 7 6 5 4 4 4 3 3 2 2 1 1 1 1 0 0 1 1 1 1 0 0 1 0 1 0 0 1 1 1 2 2 1
8 9 9 9 9 8 8 8 8 8 7 7 6 5 4 4 3 3 3 2 1 1 1 1 1 1 1 1 1 1 0 0 0 0 0 0 0 0 1 1 1 1 2
9 8 8 8 8 7 7 7 7 7 6 6 6 5 4 4 4 3 3 3 2 2 1 1 1 1 1 1 1 1 1 0 0 0 0 0 1 1 1 1 1 1 2
7 7 7 7 7 7 7 7 7 7 7 6 6 5 4 4 4 4 4 3 3 2 2 2 1 1 1 0 0 0 0 0 0 0 0 0 1 1 1 1 1 1 1
6 6 6 7 7 7 7 7 7 7 6 6 6 5 5 5 5 4 4 3 3 2 2 2 2 2 1 1 1 1 0 0 0 0 0 0 1 1 1 1 1 1 2
6 6 6 7 7 7 7 7 7 6 6 6 7 6 6 6 5 5 4 4 3 3 3 2 2 2 2 1 1 1 1 0 0 0 0 1 1 1 1 1 1 2 2
6 7 7 7 7 6 6 6 6 6 6 7 7 6 5 5 4 4 4 3 3 4 3 2 2 2 2 2 2 2 1 1 0 0 1 1 1 1 1 1 2 3 2
7 7 7 7 8 8 8 7 7 7 7 7 6 6 5 5 5 5 4 3 3 3 3 3 3 2 2 3 4 3 2 2 2 1 1 1 0 0 1 2 3 4 4
7 7 8 9 9 8 8 8 8 7 7 7 6 5 6 6 6 5 4 4 4 3 3 3 3 3 4 4 4 4 3 2 2 2 1 0 1 1 1 2 2 2 2
7 7 7 7 7 7 7 6 7 7 7 6 6 6 6 6 5 5 5 4 4 4 4 4 4 3 4 4 4 4 3 2 2 2 2 2 1 1 2 2 1 1 0
6 6 7 6 7 7 8 7 7 6 7 7 7 7 6 6 6 6 6 5 4 4 4 3 4 4 4 4 4 4 2 2 2 2 2 2 2 2 3 3 2 0 1
2 3 5 5 6 7 8 8 7 7 7 8 7 6 6 6 6 6 5 4 4 4 4 3 3 4 4 4 5 5 3 3 2 1 1 2 3 3 4 4 3 2 2
3 4 5 5 6 7 8 8 7 8 7 5 5 5 6 6 6 5 4 4 4 3 3 3 3 3 4 5 5 6 4 4 3 2 2 2 3 4 4 4 4 4 3
3 4 5 4 4 6 8 7 7 6 5 5 5 5 5 5 5 4 4 4 4 4 3 3 3 3 3 4 5 7 7 6 4 4 3 3 4 5 5 4 3 3 3
4 4 5 5 3 5 7 7 5 5 6 5 5 5 5 5 5 5 5 4 4 4 4 3 4 4 3 4 6 7 8 8 5 4 5 4 5 4 3 3 3 3 3
3 3 4 4 4 4 5 5 4 5 6 6 5 5 5 4 4 4 5 5 5 5 5 5 5 4 4 4 3 4 5 6 4 3 3 3 3 3 2 2 2 2 3
2 3 4 4 4 4 4 4 5 6 6 5 5 4 5 5 5 4 5 6 6 7 7 6 6 5 6 7 8 6 5 5 4 3 2 2 2 2 2 2 2 3 3
2 2 3 3 3 3 3 3 4 5 5 4 4 4 4 4 4 4 3 5 7 8 10 9 7 6 7 6 8 9 8 7 7 5 3 4 4 4 4 4 3 3 4
Wind_Direction
214 199 195 186 176 178 178 178 172 173 150 138 143 133 139 57 21 304 321 322 299 134 141 165 130 132 134 158 142 133 121 110 121 94 47 18 35 48 28 17 18 356 334
205 197 192 185 183 187 187 184 185 179 174 167 156 149 138 124 120 7 15 351 333 138 160 172 198 162 139 127 126 137 128 146 149 134 113 10 5 18 30 44 50 0 2
205 199 194 193 190 192 191 194 193 185 178 160 119 96 76 53 35 2 341 335 345 337 287 226 188 170 166 185 186 167 163 189 214 173 159 160 214 318 354 24 26 21 19
203 198 195 196 197 198 189 188 185 180 173 156 149 152 156 171 206 236 294 338 357 334 292 251 217 204 187 199 216 186 188 177 205 222 210 182 165 171 268 2 20 28 18
200 199 198 197 196 190 182 180 178 180 173 164 165 159 166 180 169 150 328 343 349 334 322 303 241 237 224 224 230 193 184 190 196 198 179 165 171 176 181 240 317 8 13
198 198 195 187 187 181 177 175 176 183 176 171 172 173 178 175 161 179 272 316 331 329 329 306 293 231 224 230 226 197 185 198 197 195 175 180 186 187 181 200 227 297 344
192 189 186 185 186 182 182 179 177 186 183 177 182 183 182 179 187 196 205 213 268 298 297 299 250 246 231 213 189 158 177 186 176 193 218 214 233 176 162 165 182 217 319
190 191 189 187 188 187 183 179 180 188 185 182 187 186 180 181 194 199 194 198 206 229 248 189 183 2 64 129 143 135 189 150 171 225 226 222 254 172 160 162 161 178 232
188 188 186 185 186 185 186 185 184 187 186 185 183 184 185 186 193 192 187 197 209 201 169 132 101 39 57 66 104 97 192 157 183 230 232 227 239 163 157 160 172 170 194
181 182 184 184 185 185 182 181 184 186 185 184 188 190 190 192 189 178 184 188 197 181 136 119 96 40 35 50 86 78 9 138 261 216 209 278 30 120 123 159 175 180 173
181 182 184 182 174 170 172 179 179 176 179 183 184 185 184 183 180 185 194 193 189 177 167 171 152 111 32 45 83 68 55 94 22 11 110 34 87 105 107 116 120 130 143
174 174 174 170 169 172 175 179 178 181 185 183 181 185 180 173 180 192 197 190 188 185 181 171 158 167 159 119 134 164 59 117 68 347 57 22 77 81 107 121 126 133 138
161 159 159 166 173 177 178 177 179 183 181 176 177 178 180 179 189 196 191 185 185 187 179 172 181 199 198 191 196 189 209 186 216 240 203 286 100 83 113 136 138 135 124
167 164 166 173 177 178 176 174 175 174 170 168 172 180 188 189 191 189 186 186 183 185 194 199 205 204 200 199 199 177 179 187 240 279 249 229 187 196 178 150 148 135 124
173 178 178 177 174 171 172 173 171 168 166 166 176 186 186 180 176 178 185 187 186 193 198 198 205 204 195 201 196 197 191 189 185 2 307 264 181 172 189 168 163 151 146
188 187 181 177 179 179 177 174 172 169 164 171 183 182 173 173 179 185 184 184 189 191 190 203 209 218 226 210 196 189 194 185 184 215 297 311 340 115 112 143 163 170 170
191 185 187 188 186 182 177 178 174 164 166 175 179 179 179 182 188 187 183 193 200 199 202 214 216 228 238 221 205 196 190 195 203 207 227 279 48 97 107 99 102 125 151
194 193 190 188 180 172 169 166 160 161 168 175 180 182 185 189 185 183 193 201 200 202 212 216 221 230 245 226 208 198 190 197 213 215 210 205 212 160 136 123 104 87 123
200 193 184 180 169 165 160 153 160 164 171 182 188 188 185 186 188 196 203 204 200 208 214 213 212 224 249 234 208 189 182 195 226 235 220 202 196 182 150 140 141 123 322
176 172 159 153 161 166 154 154 166 173 189 195 193 187 184 186 195 202 204 201 199 208 206 216 216 218 239 240 218 193 190 200 216 226 224 205 194 185 169 165 166 195 233
149 144 139 155 171 163 155 164 174 194 202 190 182 183 186 191 196 195 193 190 193 196 203 214 222 224 234 240 223 202 197 201 203 210 221 220 194 186 183 181 190 210 196
126 141 145 158 161 157 160 173 193 198 176 170 179 187 188 194 194 189 193 187 185 197 211 218 236 238 236 231 226 212 207 201 199 212 215 211 193 191 190 193 205 190 159
152 151 153 153 158 165 168 183 197 170 163 170 185 191 191 194 191 192 194 191 191 204 214 217 231 241 235 231 224 217 212 205 206 213 205 198 195 194 197 204 194 172 165
160 146 143 155 176 179 178 187 178 165 167 181 192 191 192 201 199 198 198 197 200 207 213 219 229 233 231 228 219 213 210 209 210 211 201 190 189 185 180 183 189 186 192
177 161 162 175 188 182 184 180 171 165 174 186 195 195 198 203 207 208 209 208 212 207 207 218 219 220 230 228 211 201 202 202 198 170 152 168 186 198 201 205 204 199 200
169 158 164 172 179 176 182 182 178 173 175 186 197 203 204 205 207 210 226 230 225 220 216 218 215 225 228 220 206 206 204 198 177 164 190 205 209 214 216 215 216 214 215